Dickinson, ND

7:50 PM MST on February 24, 2017 (GMT -0700)
Dickinson Municipal

Weather History for KDIK - September, 2011

Change the Weather History Date:

Sunday, September 25, 2011

  Actual Average Record
Temperature  
Mean Temperature 67 °F 53 °F  
Max Temperature 85 °F 67 °F 91 °F (2014)
Min Temperature 48 °F 39 °F 12 °F (1926)
Degree Days  
Heating Degree Days 0 13  
Month to date heating degree days 182 199  
Since 1 July heating degree days 206 285  
Cooling Degree Days 2 0  
Month to date cooling degree days 18 30  
Year to date cooling degree days 342 416  
Growing Degree Days 16 (Base 50)    
Moisture  
Dew Point 47 °F    
Average Humidity 58    
Maximum Humidity 86    
Minimum Humidity 29    
Precipitation  
Precipitation 0.00 in 0.05 in 2.00 in (1923)
Month to date precipitation 0.66 1.23  
Year to date precipitation 16.99 13.52  
Sea Level Pressure  
Sea Level Pressure 29.77 in    
Wind  
Wind Speed 8 mph (SSE)    
Max Wind Speed 20 mph    
Max Gust Speed 25 mph    
Visibility 10 miles    
Events      
T = Trace of Precipitation, MM = Missing Value Source: NWS Daily Summary

Daily Weather History Graph

Daily Weather History Graph

Search for Another Location

Airport or City:

Trip Planner

Search our weather history database for the weather conditions in past years. The results will help you decide how hot, cold, wet, or windy it might be!

Date:

Astronomy

Sep. 25, 2011 Rise Set
Actual Time 6:41 AM MDT 6:43 PM MDT
Civil Twilight 6:11 AM MDT 7:13 PM MDT
Nautical Twilight 5:35 AM MDT 7:48 PM MDT
Astronomical Twilight 4:59 AM MDT 8:25 PM MDT
Moon 4:25 AM MDT 5:28 PM MDT
Length of Visible Light 13h 02m
Length of Day
12h 01m
Waning Crescent, 4% of the Moon is Illuminated
Sep 25
Waning Crescent
Sep 27
New
Oct 3
First Quarter
Oct 11
Full
Oct 19
Last Quarter

Hourly Weather History & Observations

Time (MDT) Temp. Dew Point Humidity Pressure Visibility Wind Dir Wind Speed Gust Speed Precip Events Conditions
12:56 AM 57.0 °F 46.9 °F 69% 29.82 in 10.0 mi South 8.1 mph - N/A   Clear
1:56 AM 55.9 °F 46.9 °F 72% 29.81 in 10.0 mi South 8.1 mph - N/A   Clear
2:56 AM 55.9 °F 46.0 °F 69% 29.80 in 10.0 mi SSW 4.6 mph - N/A   Clear
3:56 AM 53.1 °F 45.0 °F 74% 29.80 in 10.0 mi SW 3.5 mph - N/A   Clear
4:56 AM 50.0 °F 44.1 °F 80% 29.79 in 10.0 mi WNW 3.5 mph - N/A   Clear
5:56 AM 51.1 °F 45.0 °F 80% 29.80 in 10.0 mi Calm Calm - N/A   Clear
6:56 AM 48.0 °F 44.1 °F 86% 29.81 in 10.0 mi Calm Calm - N/A   Clear
7:56 AM 57.0 °F 48.9 °F 74% 29.81 in 10.0 mi Calm Calm - N/A   Clear
8:56 AM 66.9 °F 50.0 °F 54% 29.80 in 10.0 mi Calm Calm - N/A   Clear
9:56 AM 73.9 °F 51.1 °F 45% 29.79 in 10.0 mi Calm Calm - N/A   Clear
10:56 AM 80.1 °F 51.1 °F 36% 29.78 in 10.0 mi Calm Calm - N/A   Clear
11:56 AM 84.0 °F 48.0 °F 28% 29.75 in 10.0 mi Variable 4.6 mph - N/A   Clear
12:56 PM 84.9 °F 48.9 °F 29% 29.74 in 10.0 mi ESE 10.4 mph 16.1 mph N/A   Clear
1:56 PM 84.0 °F 48.9 °F 29% 29.73 in 10.0 mi SE 11.5 mph 19.6 mph N/A   Clear
2:56 PM 84.0 °F 48.0 °F 28% 29.72 in 10.0 mi SSE 11.5 mph - N/A   Clear
3:56 PM 82.9 °F 48.0 °F 29% 29.73 in 10.0 mi SE 17.3 mph 24.2 mph N/A   Clear
4:56 PM 82.0 °F 48.0 °F 30% 29.73 in 10.0 mi SSE 16.1 mph - N/A   Clear
5:56 PM 77.0 °F 48.0 °F 36% 29.74 in 10.0 mi SE 11.5 mph - N/A   Clear
6:56 PM 69.1 °F 46.9 °F 45% 29.75 in 10.0 mi SE 10.4 mph - N/A   Clear
7:56 PM 66.0 °F 46.9 °F 50% 29.76 in 10.0 mi SSE 12.7 mph - N/A   Clear
9:56 PM 60.1 °F 45.0 °F 57% 29.77 in 10.0 mi SE 11.5 mph - N/A   Clear
10:56 PM 57.0 °F 44.1 °F 62% 29.77 in 10.0 mi SE 12.7 mph - N/A   Clear
11:56 PM 55.9 °F 41.0 °F 57% 29.77 in 10.0 mi SSE 13.8 mph - N/A   Clear